Location: Bad Salzschlirf
(50.3750°N, 9.3000°E)
Time: 04:17:36
(UTC+02:00)

ISS - Pass Details

Date: 30 March 2020
Orbit: 417 x 423 km, 51.6° (Epoch: 29 March)

Event Time Altitude Azimuth Distance (km) Brightness Sun altitude
Rises 20:55:00 0° 283° (WNW) 2,361 2.2 -10.5°
Reaches altitude 10° 20:57:06 10° 284° (WNW) 1,497 0.6 -10.8°
Maximum altitude 21:00:27 86° 11° (N) 423 -3.8 -11.3°
Enters shadow 21:02:43 19° 103° (ESE) 1,055 -2.4 -11.6°
